This is the latest recevied weather packets stored in our database for station/object LX2MT-13. If no packets are shown the sender has not sent any weather packets the latest 10 day(s).
| Time | Temp. | Humidity | Pressure | Rain* | Wind** | Luminosity | Snow |
|---|---|---|---|---|---|---|---|
| 1777884929 | 28.33° C | 32% | 1015.8 hPa | - | - | - | - |
| 1777881329 | 28.33° C | 32% | 1015.5 hPa | - | - | - | - |
| 1777877729 | 25.56° C | 34% | 1015.3 hPa | - | - | - | - |
| 1777874129 | 25.56° C | 30% | 1015.2 hPa | - | - | - | - |
| 1777870529 | 28.89° C | 29% | 1015.2 hPa | - | - | - | - |
| 1777866929 | 28.89° C | 29% | 1015.1 hPa | - | - | - | - |
| 1777863329 | 28.89° C | 29% | 1015.1 hPa | - | - | - | - |
| 1777859729 | 29.44° C | 29% | 1015.3 hPa | - | - | - | - |
| 1777856129 | 29.44° C | 29% | 1015.3 hPa | - | - | - | - |
| 1777852529 | 29.44° C | 30% | 1015.1 hPa | - | - | - | - |
| 1777848929 | 29.44° C | 31% | 1015.2 hPa | - | - | - | - |
| 1777845329 | 29.44° C | 32% | 1015.2 hPa | - | - | - | - |
| 1777841729 | 29.44° C | 33% | 1015 hPa | - | - | - | - |
| 1777838129 | 29.44° C | 34% | 1015.1 hPa | - | - | - | - |
| 1777834529 | 29.44° C | 31% | 1015 hPa | - | - | - | - |
| 1777830928 | 28.89° C | 31% | 1014.6 hPa | - | - | - | - |
| 1777827328 | 29.44° C | 31% | 1014.6 hPa | - | - | - | - |
| 1777823728 | 29.44° C | 31% | 1015.1 hPa | - | - | - | - |
| 1777820128 | 29.44° C | 30% | 1015.3 hPa | - | - | - | - |
| 1777816528 | 29.44° C | 29% | 1015.6 hPa | - | - | - | - |
| 1777812928 | 29.44° C | 27% | 1015.3 hPa | - | - | - | - |
| 1777809328 | 29.44° C | 28% | 1015.1 hPa | - | - | - | - |
| 1777805728 | 30° C | 28% | 1015.3 hPa | - | - | - | - |
| 1777802128 | 30° C | 28% | 1015.3 hPa | - | - | - | - |
| 1777798528 | 29.44° C | 28% | 1015.1 hPa | - | - | - | - |
* Rain since midnight (hover to see other rain measurements)
** Current wind speed in m/s (hover to see current wind gust speed)